Weather History for Brno, Czech Republic

Change the Weather History Date:

Sunday, May 19, 2013

  Actual Average Record
Temperature  
Mean Temperature 64 °F -  
Max Temperature 77 °F 70 °F - ()
Min Temperature 50 °F 50 °F - ()
Degree Days  
Heating Degree Days 2    
Growing Degree Days 14 (Base 50)    
Moisture  
Dew Point 52 °F    
Average Humidity 63    
Maximum Humidity 94    
Minimum Humidity 35    
Precipitation  
Precipitation 0.87 in 0.09 in - ()
Sea Level Pressure  
Sea Level Pressure 29.78 in    
Wind  
Wind Speed 10 mph ()    
Max Wind Speed 20 mph    
Max Gust Speed 25 mph    
Visibility 6.8 miles    
Events Rain , Thunderstorm    
T = Trace of Precipitation, MM = Missing Value Source: Averaged Metar Reports

Daily Weather History Graph

Daily Weather History Graph

Search for Another Location

Airport:

Trip Planner

Search our weather history database for the weather conditions in past years. The results will help you decide how hot, cold, wet, or windy it might be!

Date:

Astronomy

May. 19, 2013 Rise Set
Actual Time 5:05 AM CEST 8:34 PM CEST
Civil Twilight 4:26 AM CEST 9:14 PM CEST
Nautical Twilight 3:34 AM CEST 10:06 PM CEST
Astronomical Twilight 2:23 AM CEST 11:18 PM CEST
Moon 1:49 PM CEST (5/19) 1:54 AM CEST (5/19)
Length of Visible Light 16h 47m
Length of Day
15h 29m
Waxing Gibbous, 62% of the Moon is Illuminated
May 19
Waxing Gibbous
May 25
Full
May 31
Last Quarter
Jun 8
New
Jun 16
First Quarter

Hourly Weather History & Observations

Time (CEST) Temp. Dew Point Humidity Pressure Visibility Wind Dir Wind Speed Gust Speed Precip Events Conditions
12:00 AM 55.4 °F 50.0 °F 82% 29.86 in - ENE 8.1 mph - N/A   Clear
12:30 AM 55.4 °F 51.8 °F 88% 29.86 in - ENE 6.9 mph - N/A   Clear
1:00 AM 55.4 °F 50.0 °F 82% 29.86 in - ENE 6.9 mph - N/A   Clear
1:30 AM 57.2 °F 50.0 °F 77% 29.86 in - ENE 8.1 mph - N/A   Clear
2:00 AM 55 °F 48 °F 71% 29.87 in 37 mi ENE 6.7 mph - -  
2:00 AM 55.4 °F 48.2 °F 77% 29.86 in - ENE 6.9 mph - N/A   Clear
2:30 AM 53.6 °F 48.2 °F 82% 29.86 in - ENE 9.2 mph - N/A   Clear
3:00 AM 53.6 °F 48.2 °F 82% 29.83 in - ENE 10.4 mph - N/A   Clear
3:30 AM 51.8 °F 48.2 °F 88% 29.83 in - ENE 8.1 mph - N/A   Clear
4:00 AM 51.8 °F 48.2 °F 88% 29.83 in - ENE 6.9 mph - N/A   Clear
4:30 AM 53.6 °F 48.2 °F 82% 29.83 in - NE 9.2 mph - N/A   Clear
5:00 AM 51.8 °F 48.2 °F 88% 29.83 in - ENE 9.2 mph - N/A   Clear
5:30 AM 51.8 °F 48.2 °F 88% 29.83 in - ENE 9.2 mph - N/A   Clear
6:00 AM 53.6 °F 48.2 °F 82% 29.83 in - NE 8.1 mph - N/A   Clear
6:30 AM 55.4 °F 48.2 °F 77% 29.83 in - ENE 9.2 mph - N/A   Clear
7:00 AM 57.2 °F 50.0 °F 77% 29.83 in - ENE 6.9 mph - N/A   Clear
7:30 AM 59.0 °F 50.0 °F 72% 29.83 in - East 8.1 mph - N/A   Clear
8:00 AM 60 °F 49 °F 56% 29.81 in 19 mi East 11.2 mph - -   Scattered Clouds
8:00 AM 60.8 °F 48.2 °F 63% 29.80 in - ESE 10.4 mph - N/A   Clear
8:30 AM 60.8 °F 50.0 °F 68% 29.80 in - ESE 12.7 mph - N/A   Clear
9:00 AM 62.6 °F 48.2 °F 59% 29.80 in 6.2 mi SE 13.8 mph - N/A   Partly Cloudy
9:30 AM 64.4 °F 50.0 °F 59% 29.80 in 6.2 mi SE 15.0 mph - N/A   Partly Cloudy
10:00 AM 64.4 °F 50.0 °F 59% 29.80 in 6.2 mi SE 13.8 mph - N/A   Partly Cloudy
10:30 AM 66.2 °F 50.0 °F 56% 29.80 in 6.2 mi SSE 11.5 mph - N/A   Partly Cloudy
11:00 AM 68.0 °F 51.8 °F 56% 29.77 in 6.2 mi SSE 15.0 mph - N/A   Partly Cloudy
11:30 AM 69.8 °F 51.8 °F 53% 29.77 in 6.2 mi South 12.7 mph - N/A   Partly Cloudy
12:00 PM 71.6 °F 48.2 °F 43% 29.77 in - South 15.0 mph - N/A   Clear
12:30 PM 71.6 °F 50.0 °F 46% 29.77 in - South 16.1 mph - N/A   Clear
1:00 PM 73.4 °F 51.8 °F 47% 29.77 in - South 15.0 mph - N/A   Clear
1:30 PM 73.4 °F 53.6 °F 50% 29.77 in - South 15.0 mph - N/A   Clear
2:00 PM 75 °F 53 °F 35% 29.73 in 25 mi SSE 13.4 mph - -   Scattered Clouds
2:00 PM 75.2 °F 53.6 °F 47% 29.74 in - South 15.0 mph - N/A   Clear
2:30 PM 75.2 °F 53.6 °F 47% 29.74 in - SSE 19.6 mph - N/A   Clear
3:00 PM 75.2 °F 53.6 °F 47% 29.74 in - South 15.0 mph - N/A   Clear
3:30 PM 75.2 °F 55.4 °F 50% 29.74 in - SSE 19.6 mph - N/A   Clear
4:00 PM 75.2 °F 53.6 °F 47% 29.74 in - SSE 18.4 mph - N/A   Clear
4:30 PM 77.0 °F 53.6 °F 44% 29.74 in - SSE 15.0 mph - N/A   Clear
5:00 PM 77.0 °F 53.6 °F 44% 29.74 in - SSE 15.0 mph - N/A   Clear
5:30 PM 75.2 °F 55.4 °F 50% 29.74 in - SSE 13.8 mph - N/A   Clear
6:00 PM 75.2 °F 55.4 °F 50% 29.71 in - SE 16.1 mph - N/A   Clear
6:30 PM 75.2 °F 55.4 °F 50% 29.71 in - SE 15.0 mph - N/A   Clear
7:00 PM 75.2 °F 53.6 °F 47% 29.71 in - SE 13.8 mph - N/A   Clear
7:30 PM 73.4 °F 53.6 °F 50% 29.71 in - SE 11.5 mph - N/A   Clear
8:00 PM 71 °F 53 °F 43% 29.69 in 22 mi SE 11.2 mph - -   Scattered Clouds
8:00 PM 71.6 °F 53.6 °F 53% 29.71 in - SE 11.5 mph - N/A   Clear
8:30 PM 69.8 °F 53.6 °F 56% 29.71 in - SE 10.4 mph - N/A   Clear
9:00 PM 68.0 °F 53.6 °F 60% 29.71 in 6.2 mi ESE 9.2 mph - N/A Thunderstorm Partly Cloudy
9:12 PM 68.0 °F 53.6 °F 60% 29.71 in 6.2 mi SE 9.2 mph - N/A Thunderstorm Thunderstorm
9:22 PM 68.0 °F 53.6 °F 60% 29.71 in 6.2 mi SE 9.2 mph - N/A Rain , Thunderstorm Light Thunderstorms and Rain
9:30 PM 68.0 °F 53.6 °F 60% 29.74 in 6.2 mi SSE 9.2 mph - N/A Rain , Thunderstorm Light Thunderstorms and Rain
10:00 PM 66.2 °F 57.2 °F 73% 29.74 in 6.2 mi South 11.5 mph 25.3 mph N/A Rain , Thunderstorm Light Thunderstorms and Rain
10:30 PM 60.8 °F 55.4 °F 82% 29.74 in 6.2 mi ESE 12.7 mph - N/A Rain , Thunderstorm Light Thunderstorms and Rain
11:00 PM 60.8 °F 55.4 °F 82% 29.74 in 6.2 mi SSE 12.7 mph - N/A Rain , Thunderstorm Light Thunderstorms and Rain
11:30 PM 59.0 °F 57.2 °F 94% 29.77 in 3.1 mi SE 6.9 mph - N/A Rain , Thunderstorm Light Thunderstorms and Rain